Home   Weather   Christchurch   Past weeks
Flag for New Zealand

Past Weather in Christchurch, New Zealand — Yesterday and Last 2 Weeks

Now
90 °F

Hot.


Feels Like: 87 °F
Forecast: 62 / 53 °F
Wind: 25 mph from Northwest

Location: Christchurch Airport

Current Time: Jan 23, 2019 at 4:38:55 pm

Latest Report: Jan 23, 2019 at 3:30 pm


Visibility: N/A

Pressure: 29.24 "Hg

Humidity: 27%

Dew Point: 52 °F

Location of ChristchurchLocation

Past Weather in Christchurch — Graph

°F

Christchurch Temperature Yesterday

Maximum temperature yesterday: 86 °F (at 2:30 pm)
Minimum temperature yesterday: 52 °F (at 6:30 am)
Average temperature yesterday: 69 °F

High & Low Weather Summary for the Past Weeks

 TemperatureHumidityPressure
High90 °F (Jan 19, 4:00 pm)100% (Jan 11, 1:00 am)30.33 "Hg (Jan 11, 1:00 am)
Low46 °F (Jan 16, 6:30 am)19% (Jan 22, 5:00 pm)29.27 "Hg (Jan 23, 2:30 pm)
Average65 °F69%29.80 "Hg
* Reported Jan 8 3:00 pm — Jan 23 3:00 pm, Christchurch. Weather by CustomWeather, © 2019

Note: Actual official high and low records may vary slightly from our data, if they occured in-between our weather recording intervals... More about our weather records

Advertising

Christchurch Weather History for the Previous 24 Hours

Scroll right to see more
 ConditionsComfort  
Time TempWeatherWind HumidityBarometerVisibility
3:00 pm
Wed, Jan 23
90 °FHot.25 mph26%29.27 "HgN/A
2:30 pm90 °FScattered clouds.24 mph27%29.27 "HgN/A
1:30 pm90 °FHot.21 mph27%29.33 "HgN/A
1:00 pm90 °FHot.20 mph27%29.33 "HgN/A
12:30 pm88 °FPleasantly warm.17 mph29%29.36 "HgN/A
12:00 pm88 °FPleasantly warm.20 mph29%29.39 "HgN/A
11:30 am86 °FPleasantly warm.18 mph29%29.42 "HgN/A
11:00 am86 °FPleasantly warm.21 mph31%29.42 "HgN/A
10:30 am84 °FPleasantly warm.21 mph31%29.45 "HgN/A
9:30 am82 °FPleasantly warm.21 mph35%29.45 "HgN/A
9:00 am82 °FPleasantly warm.21 mph37%29.45 "HgN/A
8:30 am79 °FWarm.17 mph42%29.45 "HgN/A
8:00 am77 °FWarm.16 mph44%29.45 "HgN/A
7:30 am75 °FMild.8 mph44%29.45 "HgN/A
7:00 am75 °FMild.14 mph41%29.47 "HgN/A
6:30 am75 °FMild.12 mph41%29.47 "HgN/A
6:00 am73 °FMild.10 mph47%29.47 "HgN/A
5:30 am75 °FMild.12 mph44%29.47 "HgN/A
5:00 am75 °FMild.15 mph44%29.47 "HgN/A
4:30 am75 °FMild.13 mph41%29.47 "HgN/A
4:00 am77 °FPleasantly warm.14 mph39%29.47 "HgN/A
3:30 am72 °FMild.7 mph50%29.47 "HgN/A
3:00 am73 °FMild.13 mph47%29.47 "HgN/A
2:30 am72 °FMild.16 mph50%29.47 "HgN/A
2:00 am73 °FMild.17 mph47%29.50 "HgN/A
1:30 am72 °FMild.13 mph50%29.53 "HgN/A
1:00 am72 °FMild.10 mph50%29.53 "HgN/A
12:30 am72 °FMild.12 mph47%29.53 "HgN/A
12:00 am73 °FMild.17 mph44%29.53 "HgN/A
11:30 pm
Tue, Jan 22
73 °FMild.17 mph44%29.53 "HgN/A
11:00 pm75 °FMild.17 mph39%29.56 "HgN/A
10:30 pm75 °FMild.21 mph39%29.56 "HgN/A
10:00 pm75 °FMild.20 mph36%29.56 "HgN/A
9:30 pm75 °FMild.17 mph36%29.56 "HgN/A
8:30 pm77 °FPleasantly warm.14 mph36%29.56 "HgN/A
8:00 pm81 °FPleasantly warm.17 mph30%29.56 "HgN/A
7:30 pm82 °FPleasantly warm.16 mph26%29.56 "HgN/A
7:00 pm82 °FPleasantly warm.15 mph26%29.59 "HgN/A
6:30 pm82 °FPleasantly warm.18 mph25%29.59 "HgN/A
6:00 pm84 °FPleasantly warm.18 mph22%29.56 "HgN/A
5:30 pm84 °FPleasantly warm.21 mph22%29.56 "HgN/A
5:00 pm84 °FPleasantly warm.23 mph19%29.56 "HgN/A
4:30 pm84 °FPleasantly warm.21 mph20%29.56 "HgN/A
4:00 pm86 °FPleasantly warm.23 mph22%29.56 "HgN/A
Weather by CustomWeather, © 2019

See weather overview